{"data":{"norad_id":56918,"intl_designator":"2023-083AU","name":"STARLINK-5951","alt_names":[],"object_type":"PAYLOAD","status":"ACTIVE","operator":null,"country":"US","launch_date":"2023-06-12","launch_site_code":"AFETR","launch_vehicle":null,"mission":null,"orbit_class":"UNKNOWN","rcs_meters":null,"size_class":null,"mass_kg":null,"dimensions":null,"purposes":["comms"],"wikipedia_slug":null,"has_3d_model":false,"image_url":null,"decayed_at":null,"tle_current":{"epoch":"2026-09-20T16:36:35.805312Z","epoch_age_seconds":101435,"freshness":"FRESH","line1":"1 56918U 23083AU  26263.69208108  .00000163  00000+0  15451-4 0  9997","line2":"2 56918  43.0041  49.1976 0001462 262.5512  97.5173 15.27577706181622","mean_motion":15.27577706,"eccentricity":0.0001462,"inclination_deg":43.0041,"raan_deg":49.1976,"arg_perigee_deg":262.5512,"mean_anomaly_deg":97.5173,"bstar":1.5451e-5,"rev_number":18162,"period_min":94.266890276284,"perigee_km":482.05285869801,"apogee_km":484.05907152101,"semimajor_km":6861.1929651095,"source":"CELESTRAK","updated_at":"2026-09-21T09:00:33.528659Z"}}}